H1 CPF 2 NER 2025 9 20 9 263 01 glonass131 H2 1301901 9131 39155 2025 9 20 0 0 0 2025 9 23 23 45 0 900 1 1 0 0 0 1 H9 10 0 60938 0.00000 0 10867712.219 9065870.159 -21201856.215 10 0 60938 900.00000 0 11320850.077 11559091.748 -19708099.744 10 0 60938 1800.00000 0 11913981.611 13808248.556 -17831152.478 10 0 60938 2700.00000 0 12602971.428 15763946.328 -15607788.689 10 0 60938 3600.00000 0 13336468.514 17387579.105 -13081448.213 10 0 60938 4500.00000 0 14058191.479 18652692.899 -10301374.098 10 0 60938 5400.00000 0 14709430.620 19545847.536 -7321643.389 10 0 60938 6300.00000 0 15231660.759 20066944.053 -4200110.712 10 0 60938 7200.00000 0 15569154.852 20229007.406 -997285.661 10 0 60938 8100.00000 0 15671489.007 20057436.728 2224834.245 10 0 60938 9000.00000 0 15495834.693 19588757.201 5403952.866 10 0 60938 9900.00000 0 15008943.166 18868927.749 8478664.800 10 0 60938 10800.00000 0 14188740.306 17951276.597 11389623.049 10 0 60938 11700.00000 0 13025466.240 16894151.383 14080664.073 10 0 60938 12600.00000 0 11522312.898 15758381.730 16499870.263 10 0 60938 13500.00000 0 9695533.084 14604659.231 18600551.350 10 0 60938 14400.00000 0 7574015.997 13490942.768 20342127.751 10 0 60938 15300.00000 0 5198345.588 12469995.773 21690900.623 10 0 60938 16200.00000 0 2619378.859 11587156.483 22620695.213 10 0 60938 17100.00000 0 -103599.581 10878432.840 23113366.155 10 0 60938 18000.00000 0 -2905073.223 10369000.657 23159155.313 10 0 60938 18900.00000 0 -5715751.937 10072167.530 22756895.088 10 0 60938 19800.00000 0 -8465194.159 9988846.335 21914052.255 10 0 60938 20700.00000 0 -11084487.070 10107561.635 20646609.979 10 0 60938 21600.00000 0 -13508875.792 10404990.650 18978788.111 10 0 60938 22500.00000 0 -15680233.804 10847018.418 16942604.720 10 0 60938 23400.00000 0 -17549272.252 11390265.368 14577284.688 10 0 60938 24300.00000 0 -19077395.704 11984025.301 11928524.237 10 0 60938 25200.00000 0 -20238125.636 12572533.974 9047623.392 10 0 60938 26100.00000 0 -21018030.321 13097473.625 5990501.475 10 0 60938 27000.00000 0 -21417120.062 13500607.738 2816613.731 10 0 60938 27900.00000 0 -21448689.141 13726433.741 -412210.142 10 0 60938 28800.00000 0 -21138609.433 13724739.497 -3632982.328 10 0 60938 29700.00000 0 -20524104.387 13452952.714 -6782803.107 10 0 60938 30600.00000 0 -19652054.800 12878180.599 -9800110.737 10 0 60938 31500.00000 0 -18576908.508 11978850.066 -12625908.242 10 0 60938 32400.00000 0 -17358283.658 10745875.846 -15204940.637 10 0 60938 33300.00000 0 -16058368.833 9183304.359 -17486797.166 10 0 60938 34200.00000 0 -14739232.281 7308404.008 -19426914.809 10 0 60938 35100.00000 0 -13460156.295 5151196.826 -20987461.763 10 0 60938 36000.00000 0 -12275111.516 2753450.649 -22138082.509 10 0 60938 36900.00000 0 -11230479.361 167174.502 -22856489.442 10 0 60938 37800.00000 0 -10363119.529 -2547318.844 -23128889.658 10 0 60938 38700.00000 0 -9698864.053 -5323700.751 -22950239.373 10 0 60938 39600.00000 0 -9251500.462 -8092168.007 -22324322.232 10 0 60938 40500.00000 0 -9022285.151 -10782130.200 -21263651.606 10 0 60938 41400.00000 0 -9000005.077 -13324930.315 -19789200.638 10 0 60938 42300.00000 0 -9161582.365 -15656484.866 -17929967.255 10 0 60938 43200.00000 0 -9473193.362 -17719734.088 -15722384.496 10 0 60938 44100.00000 0 -9891852.131 -19466801.369 -13209589.432 10 0 60938 45000.00000 0 -10367389.108 -20860773.867 -10440566.431 10 0 60938 45900.00000 0 -10844739.580 -21877032.670 -7469182.656 10 0 60938 46800.00000 0 -11266444.194 -22504080.017 -4353135.402 10 0 60938 47700.00000 0 -11575255.588 -22743832.183 -1152832.192 10 0 60938 48600.00000 0 -11716741.422 -22611368.948 2069774.612 10 0 60938 49500.00000 0 -11641774.961 -22134152.844 5252376.516 10 0 60938 50400.00000 0 -11308809.560 -21350753.059 8333498.715 10 0 60938 51300.00000 0 -10685842.832 -20309128.834 11253669.246 10 0 60938 52200.00000 0 -9751989.353 -19064544.756 13956546.503 10 0 60938 53100.00000 0 -8498597.023 -17677204.952 16389985.099 10 0 60938 54000.00000 0 -6929860.884 -16209704.050 18507021.529 10 0 60938 54900.00000 0 -5062908.550 -14724399.833 20266762.585 10 0 60938 55800.00000 0 -2927352.755 -13280815.329 21635161.169 10 0 60938 56700.00000 0 -564327.855 -11933176.666 22585666.058 10 0 60938 57600.00000 0 1974952.149 -10728187.487 23099734.141 10 0 60938 58500.00000 0 4631057.211 -9703131.246 23167195.637 10 0 60938 59400.00000 0 7338552.516 -8884379.649 22786465.072 10 0 60938 60300.00000 0 10028469.121 -8286369.316 21964593.005 10 0 60938 61200.00000 0 12630934.590 -7911090.011 20717155.948 10 0 60938 62100.00000 0 15077857.053 -7748107.152 19067984.519 10 0 60938 63000.00000 0 17305553.016 -7775119.468 17048732.567 10 0 60938 63900.00000 0 19257210.471 -7959030.590 14698292.990 10 0 60938 64800.00000 0 20885084.635 -8257491.656 12062068.958 10 0 60938 65700.00000 0 22152333.690 -8620851.884 9191112.377 10 0 60938 66600.00000 0 23034416.027 -8994436.080 6141144.576 10 0 60938 67500.00000 0 23519988.277 -9321053.391 2971477.168 10 0 60938 68400.00000 0 23611264.124 -9543630.692 -256146.232 10 0 60938 69300.00000 0 23323816.656 -9607857.718 -3478764.326 10 0 60938 70200.00000 0 22685830.926 -9464729.590 -6633443.555 10 0 60938 71100.00000 0 21736837.296 -9072876.074 -9658528.461 10 0 60938 72000.00000 0 20525978.895 -8400575.598 -12494870.237 10 0 60938 72900.00000 0 19109887.100 -7427365.385 -15087006.967 10 0 60938 73800.00000 0 17550256.198 -6145176.528 -17384270.078 10 0 60938 74700.00000 0 15911221.664 -4558943.504 -19341793.134 10 0 60938 75600.00000 0 14256654.933 -2686660.604 -20921401.559 10 0 60938 76500.00000 0 12647490.951 -558881.935 -22092364.745 10 0 60938 77400.00000 0 11139202.956 1782314.136 -22831995.336 10 0 60938 78300.00000 0 9779532.004 4284852.071 -23126084.144 10 0 60938 79200.00000 0 8606567.123 6888612.745 -22969162.938 10 0 60938 80100.00000 0 7647256.272 9527730.389 -22364591.217 10 0 60938 81000.00000 0 6916409.238 12133135.562 -21324466.891 10 0 60938 81900.00000 0 6416232.058 14635236.861 -19869364.446 10 0 60938 82800.00000 0 6136409.700 16966628.797 -18027907.638 10 0 60938 83700.00000 0 6054730.225 19064712.879 -15836186.971 10 0 60938 84600.00000 0 6138220.903 20874123.269 -13337035.045 10 0 60938 85500.00000 0 6344745.322 22348857.207 -10579175.458 10 0 60939 0.00000 0 6624991.582 23454023.301 -7616263.333 10 0 60939 900.00000 0 6924765.943 24167137.783 -4505835.346 10 0 60939 1800.00000 0 7187493.648 24478916.031 -1308194.210 10 0 60939 2700.00000 0 7356821.573 24393531.216 1914756.024 10 0 60939 3600.00000 0 7379212.932 23928330.392 5100697.744 10 0 60939 4500.00000 0 7206425.768 23113022.878 8188089.954 10 0 60939 5400.00000 0 6797772.133 21988376.398 11117338.830 10 0 60939 6300.00000 0 6122064.360 20604476.350 13831927.631 10 0 60939 7200.00000 0 5159167.942 19018620.992 16279485.902 10 0 60939 8100.00000 0 3901096.765 17292939.677 18412779.363 10 0 60939 9000.00000 0 2352605.079 15491832.060 20190603.346 10 0 60939 9900.00000 0 531250.940 13679333.140 21578564.357 10 0 60939 10800.00000 0 -1533072.872 11916511.709 22549736.221 10 0 60939 11700.00000 0 -3799123.124 10259008.347 23085179.209 10 0 60939 12600.00000 0 -6215767.425 8754813.581 23174312.585 10 0 60939 13500.00000 0 -8723865.168 7442377.241 22815133.218 10 0 60939 14400.00000 0 -11258493.462 6349127.010 22014275.129 10 0 60939 15300.00000 0 -13751428.992 5490457.890 20786907.320 10 0 60939 16200.00000 0 -16133785.642 4869235.461 19156469.750 10 0 60939 17100.00000 0 -18338700.501 4475834.993 17154250.103 10 0 60939 18000.00000 0 -20303957.788 4288716.570 14818806.885 10 0 60939 18900.00000 0 -21974441.684 4275513.990 12195247.426 10 0 60939 19800.00000 0 -23304315.048 4394593.506 9334372.463 10 0 60939 20700.00000 0 -24258831.314 4597018.122 6291702.142 10 0 60939 21600.00000 0 -24815701.545 4828835.334 3126401.221 10 0 60939 22500.00000 0 -24965956.694 5033591.467 -99875.942 10 0 60939 23400.00000 0 -24714266.333 5154965.226 -3324197.627 10 0 60939 24300.00000 0 -24078698.197 5139406.972 -6483599.335 10 0 60939 25200.00000 0 -23089927.104 4938669.251 -9516334.618 10 0 60939 26100.00000 0 -21789925.801 4512118.187 -12363105.360 10 0 60939 27000.00000 0 -20230193.031 3828724.472 -14968245.002 10 0 60939 27900.00000 0 -18469594.497 2868646.453 -17280829.150 10 0 60939 28800.00000 0 -16571909.359 1624335.536 -19255689.602 10 0 60939 29700.00000 0 -14603187.696 101115.067 -20854310.249 10 0 60939 30600.00000 0 -12629032.354 -1682793.150 -22045586.193 10 0 60939 31500.00000 0 -10711921.516 -3696796.352 -22806430.668 10 0 60939 32400.00000 0 -8908686.000 -5898989.969 -23122218.075 10 0 60939 33300.00000 0 -7268247.967 -8237703.178 -22987055.187 10 0 60939 34200.00000 0 -5829715.797 -10653464.793 -22403876.428 10 0 60939 35100.00000 0 -4620913.970 -13081305.836 -21384362.985 10 0 60939 36000.00000 0 -3657407.581 -15453301.131 -19948689.144 10 0 60939 36900.00000 0 -2942059.683 -17701242.732 -18125102.743 10 0 60939 37800.00000 0 -2465136.718 -19759332.972 -15949349.844 10 0 60939 38700.00000 0 -2204954.040 -21566784.851 -13463956.576 10 0 60939 39600.00000 0 -2129030.878 -23070221.946 -10717383.739 10 0 60939 40500.00000 0 -2195702.943 -24225779.102 -7763071.843 10 0 60939 41400.00000 0 -2356122.145 -25000818.213 -4658396.050 10 0 60939 42300.00000 0 -2556557.277 -25375189.806 -1463551.834 10 0 60939 43200.00000 0 -2740897.611 -25341990.367 1759606.934 10 0 60939 44100.00000 0 -2853253.619 -24907786.304 4948755.351 10 0 60939 45000.00000 0 -2840545.752 -24092297.508 8042288.054 10 0 60939 45900.00000 0 -2654973.201 -22927555.451 10980491.200 10 0 60939 46800.00000 0 -2256260.058 -21456572.127 13706674.759 10 0 60939 47700.00000 0 -1613585.905 -19731575.667 16168245.049 10 0 60939 48600.00000 0 -707120.931 -17811885.729 18317698.805 10 0 60939 49500.00000 0 470898.105 -15761515.923 20113521.599 10 0 60939 50400.00000 0 1915596.115 -13646601.280 21520975.086 10 0 60939 51300.00000 0 3609416.839 -11532755.534 22512759.477 10 0 60939 52200.00000 0 5522612.425 -9482465.710 23069539.529 10 0 60939 53100.00000 0 7614247.445 -7552630.083 23180324.384 10 0 60939 54000.00000 0 9833678.641 -5792339.914 22842693.801 10 0 60939 54900.00000 0 12122452.275 -4240995.899 22062865.534 10 0 60939 55800.00000 0 14416543.636 -2926837.102 20855601.050 10 0 60939 56700.00000 0 16648848.758 -1865943.776 19243949.350 10 0 60939 57600.00000 0 18751827.304 -1061756.489 17258831.353 10 0 60939 58500.00000 0 20660188.279 -505133.055 14938470.271 10 0 60939 59400.00000 0 22313507.368 -174942.558 12327676.375 10 0 60939 60300.00000 0 23658666.344 -39173.277 9476997.670 10 0 60939 61200.00000 0 24652011.181 -56509.412 6441751.198 10 0 60939 62100.00000 0 25261136.439 -178311.134 3280952.608 10 0 60939 63000.00000 0 25466218.383 -350914.592 56164.439 10 0 60939 63900.00000 0 25260838.025 -518154.018 -3169713.954 10 0 60939 64800.00000 0 24652256.773 -623997.630 -6333690.073 10 0 60939 65700.00000 0 23661130.885 -615183.403 -9373929.442 10 0 60939 66600.00000 0 22320675.274 -443740.098 -12230987.530 10 0 60939 67500.00000 0 20675311.267 -69283.498 -14848995.879 10 0 60939 68400.00000 0 18778855.591 539012.644 -17176776.805 10 0 60939 69300.00000 0 16692327.915 1400857.361 -19168862.634 10 0 60939 70200.00000 0 14481470.926 2523763.258 -20786397.788 10 0 60939 71100.00000 0 12214089.191 3902494.669 -21997904.882 10 0 60939 72000.00000 0 9957320.641 5519067.321 -22779899.292 10 0 60939 72900.00000 0 7774956.867 7343299.663 -23117340.282 10 0 60939 73800.00000 0 5724925.667 9333892.068 -23003910.580 10 0 60939 74700.00000 0 3857041.654 11439987.481 -22442120.130 10 0 60939 75600.00000 0 2211118.454 13603146.616 -21443233.597 10 0 60939 76500.00000 0 815519.936 15759653.472 -20027024.848 10 0 60939 77400.00000 0 -313791.303 17843053.321 -18221365.151 10 0 60939 78300.00000 0 -1173671.499 19786816.041 -16061655.037 10 0 60939 79200.00000 0 -1773665.435 21527013.037 -13590112.663 10 0 60939 80100.00000 0 -2135337.539 23004896.013 -10854934.124 10 0 60939 81000.00000 0 -2291096.049 24169270.693 -7909343.331 10 0 60939 81900.00000 0 -2282562.916 24978567.717 -4810550.807 10 0 60939 82800.00000 0 -2158560.554 25402526.079 -1618642.205 10 0 60939 83700.00000 0 -1972801.958 25423421.004 1604581.813 10 0 60939 84600.00000 0 -1781382.363 25036787.252 4796792.198 10 0 60939 85500.00000 0 -1640178.180 24251609.804 7896322.397 10 0 60940 0.00000 0 -1602262.058 23089975.902 10843341.421 10 0 60940 900.00000 0 -1715441.742 21586203.460 13580989.507 10 0 60940 1800.00000 0 -2020024.821 19785484.359 16056452.340 10 0 60940 2700.00000 0 -2546901.789 17742096.799 18221960.332 10 0 60940 3600.00000 0 -3316026.882 15517261.516 20035691.703 10 0 60940 4500.00000 0 -4335359.744 13176728.754 21462565.399 10 0 60940 5400.00000 0 -5600312.468 10788194.128 22474909.833 10 0 60940 6300.00000 0 -7093726.181 8418648.125 23052995.681 10 0 60940 7200.00000 0 -8786380.065 6131766.817 23185422.970 10 0 60940 8100.00000 0 -10638014.211 3985449.743 22869354.858 10 0 60940 9000.00000 0 -12598826.916 2029605.416 22110592.789 10 0 60940 9900.00000 0 -14611387.390 304275.306 20923490.069 10 0 60940 10800.00000 0 -16612887.578 -1161826.072 19330703.497 10 0 60940 11700.00000 0 -18537642.160 -2352293.837 17362785.405 10 0 60940 12600.00000 0 -20319734.650 -3263496.159 15057621.337 10 0 60940 13500.00000 0 -21895700.391 -3904497.628 12459721.658 10 0 60940 14400.00000 0 -23207134.494 -4296444.106 9619378.441 10 0 60940 15300.00000 0 -24203114.664 -4471433.337 6591702.182 10 0 60940 16200.00000 0 -24842335.499 -4470917.629 3435555.849 10 0 60940 17100.00000 0 -25094862.156 -4343705.379 212406.587 10 0 60940 18000.00000 0 -24943426.637 -4143646.057 -3014882.121 10 0 60940 18900.00000 0 -24384209.182 -3927097.618 -6183293.130 10 0 60940 19800.00000 0 -23427069.093 -3750285.475 -9230907.103 10 0 60940 20700.00000 0 -22095213.114 -3666667.465 -12098136.019 10 0 60940 21600.00000 0 -20424314.022 -3724419.505 -14728912.151 10 0 60940 22500.00000 0 -18461116.060 -3964151.586 -17071806.814 10 0 60940 23400.00000 0 -16261586.409 -4416953.907 -19081054.727 10 0 60940 24300.00000 0 -13888691.592 -5102858.341 -20717462.205 10 0 60940 25200.00000 0 -11409893.935 -6029782.300 -21949180.187 10 0 60940 26100.00000 0 -8894475.043 -7193000.689 -22752326.413 10 0 60940 27000.00000 0 -6410800.322 -8575168.618 -23111444.646 10 0 60940 27900.00000 0 -4023640.395 -10146893.509 -23019792.665 10 0 60940 28800.00000 0 -1791662.266 -11867831.498 -22479454.555 10 0 60940 29700.00000 0 234805.050 -13688260.616 -21501276.690 10 0 60940 30600.00000 0 2015638.133 -15551063.091 -20104630.453 10 0 60940 31500.00000 0 3522343.891 -17394032.004 -18317008.259 10 0 60940 32400.00000 0 4738984.679 -19152404.289 -16173462.691 10 0 60940 33300.00000 0 5662568.541 -20761513.078 -13715901.436 10 0 60940 34200.00000 0 6302891.956 -22159447.979 -10992253.378 10 0 60940 35100.00000 0 6681845.546 -23289612.192 -8055523.345 10 0 60940 36000.00000 0 6832215.461 -24103070.390 -4962754.811 10 0 60940 36900.00000 0 6796033.858 -24560590.495 -1773921.291 10 0 60940 37800.00000 0 6622550.219 -24634295.800 1449231.962 10 0 60940 38700.00000 0 6365910.335 -24308860.343 4644373.820 10 0 60940 39600.00000 0 6082641.290 -23582199.581 7749778.481 10 0 60940 40500.00000 0 5829048.103 -22465629.245 10705500.122 10 0 60940 41400.00000 0 5658630.662 -20983487.008 13454509.853 10 0 60940 42300.00000 0 5619628.281 -19172233.410 15943774.777 10 0 60940 43200.00000 0 5752793.479 -17079069.353 18125260.323 10 0 60940 44100.00000 0 6089487.065 -14760126.803 19956838.521 10 0 60940 45000.00000 0 6650173.321 -12278306.318 21403086.533 10 0 60940 45900.00000 0 7443377.936 -9700848.964 22435961.665 10 0 60940 46800.00000 0 8465152.634 -7096740.772 23035340.952 10 0 60940 47700.00000 0 9699070.139 -4534054.668 23189415.479 10 0 60940 48600.00000 0 11116751.707 -2077337.444 22894931.732 10 0 60940 49500.00000 0 12678907.982 214852.093 22157274.531 10 0 60940 50400.00000 0 14336852.866 2292153.257 20990388.475 10 0 60940 51300.00000 0 16034430.559 4114271.023 19416537.418 10 0 60940 52200.00000 0 17710278.398 5652423.425 17465904.144 10 0 60940 53100.00000 0 19300333.499 6890307.876 15176035.369 10 0 60940 54000.00000 0 20740480.135 7824544.881 12591140.181 10 0 60940 54900.00000 0 21969227.719 8464579.024 9761253.124 10 0 60940 55800.00000 0 22930306.759 8832039.722 6741276.312 10 0 60940 56700.00000 0 23575072.398 8959587.192 3589917.983 10 0 60940 57600.00000 0 23864612.232 8889291.288 368547.625 10 0 60940 58500.00000 0 23771466.779 8670611.342 -2860009.557 10 0 60940 59400.00000 0 23280886.968 8358062.971 -6032714.269 10 0 60940 60300.00000 0 22391572.537 8008671.976 -9087564.803 10 0 60940 61200.00000 0 21115857.494 7679325.284 -11964832.063 10 0 60940 62100.00000 0 19479332.808 7424133.886 -14608251.328 10 0 60940 63000.00000 0 17519921.025 7291922.464 -16966144.992 10 0 60940 63900.00000 0 15286441.502 7323955.017 -18992452.061 10 0 60940 64800.00000 0 12836727.168 7551995.422 -20647642.439 10 0 60940 65700.00000 0 10235373.099 7996787.085 -21899496.920 10 0 60940 66600.00000 0 7551213.055 8667017.289 -22723736.959 10 0 60940 67500.00000 0 4854631.414 9558810.522 -23104491.979 10 0 60940 68400.00000 0 2214824.507 10655771.900 -23034595.740 10 0 60940 69300.00000 0 -302873.071 11929577.902 -22515707.115 10 0 60940 70200.00000 0 -2639485.190 13341088.062 -21558254.485 10 0 60940 71100.00000 0 -4744610.281 14841929.085 -20181206.653 10 0 60940 72000.00000 0 -6578265.713 16376482.956 -18411676.671 10 0 60940 72900.00000 0 -8112285.785 17884193.813 -16284368.243 10 0 60940 73800.00000 0 -9331218.005 19302095.452 -13840877.256 10 0 60940 74700.00000 0 -10232683.736 20567452.530 -11128863.695 10 0 60940 75600.00000 0 -10827191.946 21620404.466 -8201111.300 10 0 60940 76500.00000 0 -11137417.630 22406501.566 -5114494.228 10 0 60940 77400.00000 0 -11196978.595 22879028.011 -1928871.376 10 0 60940 78300.00000 0 -11048764.812 23001015.812 1294070.057 10 0 60940 79200.00000 0 -10742892.590 22746867.110 4491999.639 10 0 60940 80100.00000 0 -10334370.769 22103518.715 7603135.165 10 0 60940 81000.00000 0 -9880577.366 21071101.880 10567418.603 10 0 60940 81900.00000 0 -9438652.273 19663071.007 13327655.335 10 0 60940 82800.00000 0 -9062914.437 17905796.706 15830596.430 10 0 60940 83700.00000 0 -8802410.521 15837640.168 18027945.043 10 0 60940 84600.00000 0 -8698696.265 13507546.658 19877269.562 10 0 60940 85500.00000 0 -8783942.128 10973215.118 21342807.715 10 0 60941 0.00000 0 -9079441.555 8298917.962 22396147.706 10 0 60941 900.00000 0 -9594584.166 5553057.411 23016774.870 10 0 60941 1800.00000 0 -10326336.852 2805560.352 23192472.589 10 0 60941 2700.00000 0 -11259256.327 125212.055 22919571.562 10 0 60941 3600.00000 0 -12366034.404 -2422959.874 22203040.338 10 0 60941 4500.00000 0 -13608556.006 -4780146.303 21056414.596 10 0 60941 5400.00000 0 -14939428.766 -6895961.212 19501564.419 10 0 60941 6300.00000 0 -16303923.333 -8730299.145 17568301.618 10 0 60941 7200.00000 0 -17642245.928 -10254767.944 15293832.083 10 0 60941 8100.00000 0 -18892050.090 -11453636.099 12722061.112 10 0 60941 9000.00000 0 -19991083.514 -12324253.699 9902762.772 10 0 60941 9900.00000 0 -20879858.999 -12876927.644 6890627.534 10 0 60941 10800.00000 0 -21504236.334 -13134254.715 3744205.403 10 0 60941 11700.00000 0 -21817804.537 -13129939.234 524764.607 10 0 60941 12600.00000 0 -21783961.388 -12907144.436 -2704911.575 10 0 60941 13500.00000 0 -21377599.397 -12516447.177 -5881765.291 10 0 60941 14400.00000 0 -20586323.748 -12013483.345 -8943715.945 10 0 60941 15300.00000 0 -19411147.707 -11456385.263 -11830896.676 10 0 60941 16200.00000 0 -17866633.563 -10903121.936 -14486848.831 10 0 60941 17100.00000 0 -15980471.275 -10408857.500 -16859648.631 10 0 60941 18000.00000 0 -13792511.619 -10023442.601 -18902941.689 10 0 60941 18900.00000 0 -11353294.391 -9789147.577 -20576863.323 10 0 60941 19800.00000 0 -8722134.159 -9738735.538 -21848825.410 10 0 60941 20700.00000 0 -5964845.176 -9893958.341 -22694153.704 10 0 60941 21600.00000 0 -3151202.279 -10264539.723 -23096563.227 10 0 60941 22500.00000 0 -352245.565 -10847688.370 -23048463.036 10 0 60941 23400.00000 0 2362457.239 -11628160.587 -22551085.546 10 0 60941 24300.00000 0 4927475.706 -12578868.385 -21614439.447 10 0 60941 25200.00000 0 7283997.811 -13662005.433 -20257088.889 10 0 60941 26100.00000 0 9382024.547 -14830641.358 -18505765.204 10 0 60941 27000.00000 0 11182188.292 -16030715.226 -16394820.639 10 0 60941 27900.00000 0 12657121.622 -17203342.580 -13965536.547 10 0 60941 28800.00000 0 13792322.553 -18287337.695 -11265301.151 10 0 60941 29700.00000 0 14586483.701 -19221844.266 -8346674.165 10 0 60941 30600.00000 0 15051275.309 -19948963.910 -5266357.461 10 0 60941 31500.00000 0 15210594.826 -20416272.544 -2084092.366 10 0 60941 32400.00000 0 15099317.657 -20579120.062 1138494.843 10 0 60941 33300.00000 0 14761604.029 -20402618.250 4339077.147 10 0 60941 34200.00000 0 14248834.725 -19863235.206 7455818.446 10 0 60941 35100.00000 0 13617263.210 -18949931.098 10428550.744 10 0 60941 36000.00000 0 12925482.654 -17664789.068 13199915.633 10 0 60941 36900.00000 0 12231813.404 -16023115.752 15716449.752 10 0 60941 37800.00000 0 11591719.134 -14053007.472 17929595.252 10 0 60941 38700.00000 0 11055358.326 -11794399.558 19796617.804 10 0 60941 39600.00000 0 10665371.966 -9297637.081 21281416.290 10 0 60941 40500.00000 0 10454998.610 -6621624.273 22355210.215 10 0 60941 41400.00000 0 10446594.715 -3831626.798 22997092.774 10 0 60941 42300.00000 0 10650621.896 -996814.992 23194439.514 10 0 60941 43200.00000 0 11065143.959 1812353.252 22943164.712 10 0 60941 44100.00000 0 11675856.170 4526804.499 22247819.766 10 0 60941 45000.00000 0 12456647.585 7081468.429 21121530.328 10 0 60941 45900.00000 0 13370675.586 9417736.394 19585771.406 10 0 60941 46800.00000 0 14371910.473 11485658.888 17669982.370 10 0 60941 47700.00000 0 15407088.181 13245790.658 15411026.648 10 0 60941 48600.00000 0 16417991.565 14670606.021 12852503.963 10 0 60941 49500.00000 0 17343966.078 15745424.002 10043925.976 10 0 60941 50400.00000 0 18124564.749 16468802.863 7039769.437 10 0 60941 51300.00000 0 18702210.729 16852385.651 3898423.925 10 0 60941 52200.00000 0 19024763.779 16920201.596 681054.107 10 0 60941 53100.00000 0 19047880.096 16707451.556 -2549601.002 10 0 60941 54000.00000 0 18737062.833 16258828.257 -5730467.315 10 0 60941 54900.00000 0 18069313.386 15626442.522 -8799387.594 10 0 60941 55800.00000 0 17034310.298 14867444.353 -11696359.304 10 0 60941 56700.00000 0 15635062.987 14041441.360 -14364731.760 10 0 60941 57600.00000 0 13888010.246 13207826.193 -16752336.698 10 0 60941 58500.00000 0 11822557.723 12423128.770 -18812527.812 10 0 60941 59400.00000 0 9480073.098 11738507.961 -20505107.119 10 0 60941 60300.00000 0 6912381.233 11197491.078 -21797118.691 10 0 60941 61200.00000 0 4179823.288 10834058.406 -22663493.554 10 0 60941 62100.00000 0 1348962.377 10671154.589 -23087533.122 10 0 60941 63000.00000 0 -1509966.746 10719689.724 -23061222.349 10 0 60941 63900.00000 0 -4325755.986 10978071.510 -22585367.540 10 0 60941 64800.00000 0 -7028956.522 11432286.623 -21669557.714 10 0 60941 65700.00000 0 -9554531.345 12056525.801 -20331952.032 10 0 60941 66600.00000 0 -11844317.384 12814323.915 -18598899.376 10 0 60941 67500.00000 0 -13849195.765 13660164.529 -16504399.438 10 0 60941 68400.00000 0 -15530881.670 14541479.120 -14089417.605 10 0 60941 69300.00000 0 -16863261.769 15400954.912 -11401068.624 10 0 60941 70200.00000 0 -17833226.639 16179052.832 -8491686.268 10 0 60941 71100.00000 0 -18440966.882 16816628.971 -5417798.044 10 0 60941 72000.00000 0 -18699724.124 17257549.216 -2239025.515 10 0 60941 72900.00000 0 -18635010.604 17451187.715 983068.241 10 0 60941 73800.00000 0 -18283332.879 17354705.267 4186161.981 10 0 60941 74700.00000 0 -17690475.233 16935013.346 7308368.134 10 0 60941 75600.00000 0 -16909416.059 16170342.891 10289411.239 10 0 60941 76500.00000 0 -15997964.959 15051353.468 13071771.633 10 0 60941 77400.00000 0 -15016219.204 13581737.384 15601774.069 10 0 60941 78300.00000 0 -14023945.005 11778293.934 17830602.194 10 0 60941 79200.00000 0 -13077991.613 9670470.339 19715221.364 10 0 60941 80100.00000 0 -12229844.661 7299387.427 21219193.848 10 0 60941 81000.00000 0 -11523419.232 4716388.663 22313372.380 10 0 60941 81900.00000 0 -10993183.449 1981170.234 22976459.907 10 0 60941 82800.00000 0 -10662690.056 -840433.261 23195425.373 10 0 60941 83700.00000 0 -10543577.160 -3678918.997 22965767.561 10 0 60941 84600.00000 0 -10635080.495 -6463742.879 22291621.189 10 0 60941 85500.00000 0 -10924078.974 -9125997.234 21185701.852 99